Tracking 19484 objects as of 20-Jan-2019
HD Live streaming from Space Station
objects crossing your sky now

USA 270

Track USA 270 now!


NORAD ID: 41744
Int'l Code: 2016-052A
Perigee: 35,737.6 km
Apogee: 35,760.1 km
Inclination: 0.0 °
Period: 1,433.8 minutes
Semi major axis: 42119 km
RCS: Unknown
Launch date: August 19, 2016
Source: United States (US)
Launch site: AIR FORCE EASTERN TEST RANGE (AFETR)
aabbcc
Your satellite tracking list
Your tracking list is empty




NASA's NSSDC Master Catalog

Two Line Element Set (TLE):
1 41744U 16052A   18350.54998381 0.00000000  00000-0  00000-0 0    01
2 41744   0.0460  81.9840 0002670 340.2990  19.7010  1.00432136    02
Source of the keplerian elements: McCants